STARLINK-38345, 100615

Orbit data source: Space-Track

STARLINK-38345, 100615 is a payload satellite owned by SpaceX/Seattle (US) in LEO that was launched on Sun, 06 Sep 2026 UTC launched from the Air Force Western Test Range (AFWTR). Payload-class satellites include a variety of spacecraft equipped with specific instruments for various scientific and technological missions. These include communications satellites like Starlink; space stations such as the ISS; scientific satellites like the Hubble; Earth observation satellites from companies like Planet Labs, Umbra, and HawkEye 360; GPS; miniature CubeSats for education and research; and military/defense satellites.

Not visible in the next 10 days
Identifier
100615, 2026-204A
Orbit
LEO
Country
Flag of USUS
Related business
Manufacturer
SpaceX/Seattle
Mission
Operational spacecraft
Bus & Motor
STARLINK V2MO, Unknown motor
Mass
575 kg wet, ~530 kg dry
Launch date (UTC)
2026-09-06 (5 days ago)
Launch vehicle
Unknown
Launch site
Air Force Western Test Range (AFWTR)
Object type
Payload
Rocket body
Debris
Shape & HBR
BOX + PAN, 17.7 m
Radar Cross Section
RCS unknown

Expand to show TLE details & history
Last TLE update: 21 hours ago

TLE from 21 hours ago
0 STARLINK-38345
1 A0615U 26204A   26253.56172615 -.01093228  41439-3 -15199-2 0  9995
2 A0615  69.9975 266.2212 0004810 276.0242  84.0424 16.05773669   648
Epoch: 2026-09-10T13:28Z
TLE epoch observation values (Epoch: 2026-09-10T13:28:53.139Z)
Latitude
0.00002°
Longitude
74.40213°
Altitude
260.671 km
Speed
7.751 km/s
True Right ascension
17h 44m 53s
True Declination
0° 00' 00"
Sunlit
Object was in daylight at epoch
Visualization orbit readout
Latitude
Unknown
Longitude
Unknown
Altitude
Unknown
Speed
Unknown
Apparent Right ascension
Unknown
Apparent Declination
Unknown
Sunlit
N/A
Visualization observer readout
Local Sidereal Time
02:29:06
Azimuth
Unknown
Elevation
Unknown
Doppler factor
Unknown
Orbital elements
Apogee altitude
259.505 km
Perigee altitude
253.123 km
Semi-major axis
6,634.451 km
Eccentricity
0.00048
Inclination
69.9975°
RAAN
266.2212°
Arg. of periapsis
276.0242°
True anomaly
84.09722°
Mean anomaly
84.0424°
Eccentric anomaly
84.06981°
Mean motion
4.01639 °/min
Orbital period
89.63 mins
BSTAR
-0.0015199
Loading maneuver chart data...
Computing Atmospheric mass density...
Loading historical data...
Loading historical data...
Loading historical data...
Loading historical data...
Loading historical data...
Loading historical data...
Loading historical data...

Documentation

Showing up to 5 results
|